Location: Drocourt
(49.0571°N, 1.7669°E)
Time: 14:52:54
(UTC+00:00)

Vanguard 3 - Pass Details

Date: 19 April 2024
Orbit: 509 x 3233 km, 33.3° (Epoch: 22 May)

Event Time Altitude Azimuth Distance (km) Brightness Sun altitude
Rises 04:27:52 0° 229° (SW) 6,218 - -4.7°
Exits shadow 04:28:53 - 228° (SW) 5,950 10.9 -4.6°
Reaches altitude 10° 04:33:30 10° 219° (SW) 4,715 10.5 -3.9°
Maximum altitude 04:42:24 24° 173° (S) 2,831 9.8 -2.5°
Drops below altitude 10° 04:48:27 10° 122° (ESE) 3,084 10.7 -1.6°
Sets 04:51:14 0° 108° (ESE) 3,714 11.5 -1.1°
